EW6960 Weather Reports


Display with metric or nautical units.
time (UTC)temp
F
wind
direction
speed
MPH
gust
MPH
rain 1hr
in
rain 24hr
in
rain mn
in
humidity
%
barometer
mb
20260508004002 52 0 0.0 0.0 0.00 0.00 0.00 80 1015.4
20260508003023 52 0 0.0 0.0 0.00 0.00 0.00 80 1015.5
20260508002002 52 0 0.0 1.0 0.00 0.00 0.00 79 1015.3
20260508001002 52 0 0.0 0.0 0.00 0.00 0.00 77 1015.4
20260508000002 52 354 0.0 1.0 0.00 0.00 0.00 76 1015.4
20260507235002 52 355 0.0 1.0 0.00 0.00 0.00 76 1015.8
20260507234002 52 0 0.0 1.0 0.00 0.00 0.00 75 1015.5
20260507233002 51 0 0.0 1.0 0.00 0.00 0.00 76 1015.6
20260507232002 52 0 0.0 0.0 0.00 0.00 0.00 78 1015.5
20260507231023 51 0 0.0 0.0 0.00 0.00 0.00 79 1015.5
20260507230003 52 0 0.0 0.0 0.00 0.00 0.00 79 1015.6
20260507225023 52 0 0.0 0.0 0.00 0.00 0.00 79 1015.6
20260507224023 52 0 0.0 0.0 0.00 0.00 0.00 79 1015.6
20260507223023 51 0 0.0 0.0 0.00 0.00 0.00 79 1015.5
20260507222002 51 0 0.0 0.0 0.00 0.00 0.00 80 1015.7
20260507221002 52 0 0.0 0.0 0.00 0.00 0.00 80 1015.7
20260507220023 52 0 0.0 0.0 0.00 0.00 0.00 81 1015.6
20260507215002 51 0 0.0 1.0 0.00 0.00 0.00 85 1015.7
20260507214002 52 0 0.0 0.0 0.00 0.00 0.00 88 1015.7
20260507213002 52 0 0.0 0.0 0.00 0.00 0.00 88 1015.6
20260507212002 52 0 0.0 0.0 0.00 0.00 0.00 89 1015.5
20260507211023 52 0 0.0 0.0 0.00 0.00 0.00 89 1015.3
20260507210024 53 0 0.0 0.0 0.00 0.00 0.00 88 1015.2
20260507205003 53 0 0.0 0.0 0.00 0.00 0.00 87 1015.2
20260507204024 53 0 0.0 0.0 0.00 0.00 0.00 87 1015.5
20260507203002 53 0 0.0 0.0 0.00 0.00 0.00 86 1015.1
20260507202002 54 0 0.0 0.0 0.00 0.00 0.00 85 1015.1
20260507201002 54 0 0.0 0.0 0.00 0.00 0.00 84 1015.2
20260507200023 54 0 0.0 0.0 0.00 0.00 0.00 83 1015.1
20260507195003 55 0 0.0 0.0 0.00 0.00 0.00 83 1014.8
20260507194003 55 0 0.0 0.0 0.00 0.00 0.00 82 1014.9
20260507193002 55 0 0.0 0.0 0.00 0.00 0.00 81 1014.7
20260507192002 56 0 0.0 0.0 0.00 0.00 0.00 80 1014.8
20260507191002 56 0 0.0 0.0 0.00 0.00 0.00 79 1014.7
20260507190004 56 0 0.0 0.0 0.00 0.00 0.00 78 1014.6
20260507185002 56 0 0.0 0.0 0.00 0.00 0.00 77 1014.5
20260507184003 56 0 0.0 0.0 0.00 0.00 0.00 77 1014.6
20260507183002 57 354 0.0 2.0 0.00 0.00 0.00 76 1014.7
20260507182002 57 354 0.0 2.0 0.00 0.00 0.00 72 1014.4
20260507181002 58 36 0.0 2.0 0.00 0.00 0.00 72 1014.6
20260507180002 58 113 0.0 2.0 0.00 0.00 0.00 68 1014.6
20260507175002 59 340 0.0 1.0 0.00 0.00 0.00 64 1014.5
20260507174002 59 340 0.0 1.0 0.00 0.00 0.00 69 1014.3
20260507172002 58 278 0.0 2.0 0.00 0.00 0.00 70 1014.4
20260507171003 58 20 0.0 2.0 0.00 0.00 0.00 72 1014.6
20260507170024 59 116 0.0 2.0 0.00 0.00 0.00 70 1014.7
20260507165024 59 82 0.0 1.0 0.00 0.00 0.00 70 1014.5
20260507164003 59 85 0.0 3.0 0.00 0.00 0.00 70 1014.5
20260507163002 60 111 1.0 4.0 0.00 0.00 0.00 69 1014.6
20260507162002 61 141 1.0 4.0 0.00 0.00 0.00 58 1014.6
20260507161002 61 113 1.0 4.0 0.00 0.00 0.00 54 1014.6
20260507160002 61 85 0.0 3.0 0.00 0.00 0.00 56 1014.3
20260507155002 60 129 0.0 3.0 0.00 0.00 0.00 56 1014.5
20260507154003 60 130 0.0 6.0 0.00 0.00 0.00 58 1014.4
20260507153003 61 145 0.0 2.0 0.00 0.00 0.00 57 1014.6
20260507152003 60 125 0.0 2.0 0.00 0.00 0.00 57 1014.6
20260507151002 60 121 0.0 2.0 0.00 0.00 0.00 59 1014.4
20260507150024 61 139 0.0 2.0 0.00 0.00 0.00 57 1014.7
20260507145003 60 133 0.0 3.0 0.00 0.00 0.00 59 1014.7
20260507144003 59 117 0.0 3.0 0.00 0.00 0.00 62 1014.9
20260507143003 58 95 1.0 3.0 0.00 0.00 0.00 65 1015.0
20260507142003 58 110 1.0 3.0 0.00 0.00 0.00 64 1015.0
20260507141024 59 104 1.0 4.0 0.00 0.00 0.00 63 1015.1
20260507140024 59 111 1.0 4.0 0.00 0.00 0.00 63 1015.1
20260507135024 59 136 1.0 3.0 0.00 0.00 0.00 62 1015.0
20260507134003 59 237 0.0 3.0 0.00 0.00 0.00 61 1015.0
20260507133003 56 295 0.0 1.0 0.00 0.00 0.00 71 1015.0
20260507132003 58 0 0.0 0.0 0.00 0.00 0.00 72 1014.9
20260507131003 57 0 0.0 0.0 0.00 0.00 0.00 75 1015.1
20260507130003 57 60 0.0 1.0 0.00 0.00 0.00 77 1015.2
20260507125003 56 0 0.0 1.0 0.00 0.00 0.00 79 1015.4
20260507124003 56 105 0.0 2.0 0.00 0.00 0.00 80 1015.5
20260507123003 57 117 0.0 3.0 0.00 0.00 0.00 77 1015.2
20260507122003 58 124 0.0 4.0 0.00 0.00 0.00 70 1015.5
20260507121024 58 114 0.0 1.0 0.00 0.00 0.00 66 1015.2
20260507120024 58 125 0.0 2.0 0.00 0.00 0.00 64 1015.3
20260507115003 58 110 0.0 2.0 0.00 0.00 0.00 66 1015.3
20260507114003 58 134 0.0 4.0 0.00 0.00 0.00 66 1015.2
20260507113003 58 113 1.0 4.0 0.00 0.00 0.00 65 1015.4
20260507112003 58 129 1.0 6.0 0.00 0.00 0.00 65 1015.4
20260507111003 58 75 0.0 3.0 0.00 0.00 0.00 65 1015.3
20260507110024 58 127 1.0 3.0 0.00 0.00 0.00 64 1015.3
20260507105003 58 123 1.0 3.0 0.00 0.00 0.00 67 1015.5
20260507104003 58 105 0.0 2.0 0.00 0.00 0.00 65 1015.5
20260507103003 58 191 0.0 2.0 0.00 0.00 0.00 67 1015.3
20260507102003 59 161 0.0 3.0 0.00 0.00 0.00 66 1015.7
20260507101024 58 177 1.0 3.0 0.00 0.00 0.00 67 1015.6
20260507100003 58 153 0.0 2.0 0.00 0.00 0.00 68 1015.6
20260507095003 57 174 0.0 2.0 0.00 0.00 0.00 70 1015.6
20260507094003 57 244 1.0 2.0 0.00 0.00 0.00 73 1015.4
20260507093003 56 250 0.0 3.0 0.00 0.00 0.00 75 1015.5
20260507092024 56 131 0.0 3.0 0.00 0.00 0.00 76 1015.7
20260507091003 57 130 0.0 3.0 0.00 0.00 0.00 75 1015.6
20260507090003 56 212 0.0 2.0 0.00 0.00 0.00 74 1015.5
20260507085024 55 212 0.0 2.0 0.00 0.00 0.00 77 1015.9
20260507084003 54 212 0.0 3.0 0.00 0.00 0.00 78 1015.8
20260507083024 53 212 0.0 2.0 0.00 0.00 0.00 79 1016.0
20260507082003 52 212 0.0 2.0 0.00 0.00 0.00 79 1016.0
20260507081003 52 212 0.0 2.0 0.00 0.00 0.00 80 1015.9
20260507080003 51 215 0.0 3.0 0.00 0.00 0.00 81 1015.7
20260507075003 51 255 0.0 2.0 0.00 0.00 0.00 81 1016.0
20260507074003 51 241 0.0 1.0 0.00 0.00 0.00 81 1015.6
20260507073024 51 238 0.0 1.0 0.00 0.00 0.00 81 1015.7
20260507072003 50 226 0.0 2.0 0.00 0.00 0.00 82 1015.7
20260507071003 50 225 0.0 2.0 0.00 0.00 0.00 83 1015.6
20260507070005 50 244 0.0 3.0 0.00 0.00 0.00 83 1015.7
20260507065003 49 235 0.0 2.0 0.00 0.00 0.00 83 1015.7
20260507063003 49 232 0.0 2.0 0.00 0.00 0.00 84 1015.6
20260507062003 48 233 0.0 2.0 0.00 0.00 0.00 84 1015.6
20260507061003 48 215 0.0 1.0 0.00 0.00 0.00 85 1015.7
20260507060024 48 215 0.0 1.0 0.00 0.00 0.00 85 1015.7
20260507055024 48 215 0.0 1.0 0.00 0.00 0.00 85 1015.4
20260507054024 47 0 0.0 1.0 0.00 0.00 0.00 85 1015.2
20260507053003 47 215 0.0 1.0 0.00 0.00 0.00 85 1015.4
20260507052003 47 0 0.0 0.0 0.00 0.00 0.00 86 1015.3
20260507051003 47 0 0.0 0.0 0.00 0.00 0.00 86 1015.5
20260507050003 47 0 0.0 0.0 0.00 0.00 0.00 86 1015.2
20260507045003 47 216 0.0 1.0 0.00 0.00 0.00 85 1015.3
20260507044003 47 215 0.0 1.0 0.00 0.00 0.00 85 1015.2
20260507043003 47 0 0.0 0.0 0.00 0.00 0.00 84 1015.1
20260507042003 47 0 0.0 1.0 0.00 0.00 0.00 84 1015.1
20260507041003 47 0 0.0 0.0 0.00 0.00 0.00 85 1015.1
20260507040003 47 0 0.0 1.0 0.00 0.00 0.00 85 1015.2
20260507035003 47 0 0.0 0.0 0.00 0.00 0.00 84 1015.1
20260507034003 47 0 0.0 1.0 0.00 0.00 0.00 84 1015.1
20260507033003 47 214 0.0 1.0 0.00 0.00 0.00 83 1015.0
20260507032024 47 0 0.0 0.0 0.00 0.00 0.00 83 1014.9
20260507031024 48 0 0.0 0.0 0.00 0.00 0.00 81 1014.9
20260507030024 48 0 0.0 0.0 0.00 0.00 0.00 81 1015.1
20260507025003 48 0 0.0 1.0 0.00 0.00 0.00 80 1015.1
20260507024003 48 0 0.0 0.0 0.00 0.00 0.00 80 1015.0
20260507023003 48 0 0.0 1.0 0.00 0.00 0.00 80 1015.0
20260507022003 48 0 0.0 0.0 0.00 0.00 0.00 79 1015.0
20260507021003 48 0 0.0 0.0 0.00 0.00 0.00 79 1014.9
20260507020003 48 214 0.0 1.0 0.00 0.00 0.00 79 1015.0
20260507015004 48 0 0.0 1.0 0.00 0.00 0.00 79 1015.0
20260507014003 48 214 0.0 1.0 0.00 0.00 0.00 78 1015.1
20260507013003 48 214 0.0 1.0 0.00 0.00 0.00 78 1014.9
20260507012003 48 0 0.0 0.0 0.00 0.00 0.00 78 1014.9
20260507011003 48 214 0.0 1.0 0.00 0.00 0.00 77 1015.0
20260507010004 48 0 0.0 1.0 0.00 0.00 0.00 77 1014.9
20260507005003 49 289 0.0 1.0 0.00 0.00 0.00 77 1014.9